Weather History for Cheyenne, WY

Change the Weather History Date:

Tuesday, July 23, 2013

  Actual Average Record
Temperature  
Mean Temperature 71 °F 70 °F  
Max Temperature 83 °F 84 °F 97 °F (1940)
Min Temperature 59 °F 56 °F 44 °F (1990)
Degree Days  
Heating Degree Days 0 1  
Month to date heating degree days 0 23  
Since 1 June heating degree days 62 157  
Since 1 July heating degree days 0 23  
Cooling Degree Days 6 6  
Month to date cooling degree days 141 117  
Year to date cooling degree days 264 167  
Since 1 June cooling degree days 258 164  
Growing Degree Days 22 (Base 50)    
Moisture  
Dew Point 50 °F    
Average Humidity 44    
Maximum Humidity 68    
Minimum Humidity 20    
Precipitation  
Precipitation 0.01 in 0.08 in 1.00 in (1872)
Month to date precipitation 1.13 1.56  
Year to date precipitation 6.77 9.87  
Snow  
Snow 0.00 in 0.00 in - ()
Month to date snowfall 0.0 0.0  
Since 1 July snowfall 0.0 0.0  
Snow Depth 0.00 in    
Sea Level Pressure  
Sea Level Pressure 29.94 in    
Wind  
Wind Speed 8 mph (SE)    
Max Wind Speed 17 mph    
Max Gust Speed 23 mph    
Visibility 10 miles    
Events Rain , Thunderstorm    
T = Trace of Precipitation, MM = Missing Value Source: NWS Daily Summary

Daily Weather History Graph

Daily Weather History Graph

Search for Another Location

Airport:

Trip Planner

Search our weather history database for the weather conditions in past years. The results will help you decide how hot, cold, wet, or windy it might be!

Date:

Astronomy

Jul. 23, 2013 Rise Set
Actual Time 5:46 AM MDT 8:24 PM MDT
Civil Twilight 5:14 AM MDT 8:56 PM MDT
Nautical Twilight 4:34 AM MDT 9:35 PM MDT
Astronomical Twilight 3:49 AM MDT 10:20 PM MDT
Moon 8:52 PM MDT (7/23) 6:59 AM MDT (7/23)
Length of Visible Light 15h 41m
Length of Day
14h 37m
Full, 99% of the Moon is Illuminated
Jul 23
Full
Jul 29
Last Quarter
Aug 6
New
Aug 14
First Quarter
Aug 20
Full

Hourly Weather History & Observations

Time (MDT) Temp. Heat Index Dew Point Humidity Pressure Visibility Wind Dir Wind Speed Gust Speed Precip Events Conditions
12:53 AM 71.1 °F - 50.0 °F 47% 29.77 in 10.0 mi WSW 5.8 mph 18.4 mph N/A   Clear
1:53 AM 66.9 °F - 51.1 °F 57% 29.78 in 10.0 mi West 4.6 mph - N/A   Clear
2:53 AM 64.0 °F - 48.0 °F 56% 29.78 in 10.0 mi Calm Calm - N/A   Clear
3:53 AM 62.1 °F - 37.0 °F 39% 29.80 in 10.0 mi NW 3.5 mph - N/A   Clear
4:53 AM 63.0 °F - 27.0 °F 26% 29.79 in 10.0 mi WNW 13.8 mph - N/A   Clear
5:53 AM 66.0 °F - 25.0 °F 21% 29.81 in 10.0 mi WNW 16.1 mph - N/A   Clear
6:53 AM 66.9 °F - 32.0 °F 27% 29.84 in 10.0 mi NW 6.9 mph - N/A   Clear
7:53 AM 64.9 °F - 39.9 °F 40% 29.90 in 10.0 mi NNE 5.8 mph - N/A   Clear
8:53 AM 66.0 °F - 55.0 °F 68% 29.92 in 10.0 mi NNE 8.1 mph - N/A   Clear
9:53 AM 70.0 °F - 55.0 °F 59% 29.92 in 10.0 mi NE 8.1 mph - N/A   Clear
10:53 AM 78.1 °F - 55.0 °F 45% 29.91 in 10.0 mi Calm Calm - N/A   Clear
11:53 AM 77.0 °F - 54.0 °F 45% 29.92 in 10.0 mi NNE 11.5 mph - N/A   Clear
12:53 PM 78.1 °F - 55.9 °F 46% 29.91 in 10.0 mi ENE 11.5 mph 23.0 mph N/A   Clear
1:53 PM 80.1 °F 80.2 °F 55.9 °F 43% 29.91 in 10.0 mi ENE 10.4 mph 17.3 mph N/A   Clear
2:53 PM 80.1 °F 79.9 °F 53.1 °F 39% 29.92 in 10.0 mi ESE 3.5 mph - N/A   Clear
3:53 PM 80.1 °F 80.1 °F 55.0 °F 42% 29.91 in 10.0 mi ESE 10.4 mph - N/A   Clear
4:53 PM 79.0 °F - 54.0 °F 42% 29.91 in 10.0 mi ESE 11.5 mph 16.1 mph N/A   Clear
5:14 PM 77.0 °F - 53.6 °F 44% 30.17 in 10.0 mi East 12.7 mph - N/A Thunderstorm Scattered Clouds
5:28 PM 75.2 °F - 55.4 °F 50% 30.19 in 10.0 mi ESE 11.5 mph - 0.00 in Rain , Thunderstorm Light Rain
5:53 PM 77.0 °F - 60.1 °F 56% 29.93 in 10.0 mi SSW 10.4 mph - 0.01 in Thunderstorm Scattered Clouds
6:06 PM 77.0 °F - 57.2 °F 50% 30.19 in 10.0 mi SSE 9.2 mph - N/A   Partly Cloudy
6:45 PM 77.0 °F - 55.4 °F 47% 30.20 in 10.0 mi SE 4.6 mph - N/A Thunderstorm Thunderstorm
6:53 PM 77.0 °F - 55.9 °F 48% 29.92 in 10.0 mi SE 4.6 mph - N/A Thunderstorm Thunderstorm
7:00 PM 77.0 °F - 55.4 °F 47% 30.19 in 10.0 mi SE 5.8 mph - N/A   Clear
7:53 PM 75.0 °F - 55.0 °F 50% 29.95 in 10.0 mi SSE 3.5 mph - N/A   Clear
8:53 PM 72.0 °F - 55.0 °F 55% 29.97 in 10.0 mi SSE 4.6 mph - N/A   Clear
9:53 PM 70.0 °F - 55.0 °F 59% 29.99 in 10.0 mi SSE 8.1 mph - N/A   Clear
10:53 PM 69.1 °F - 54.0 °F 58% 29.98 in 10.0 mi SSE 10.4 mph - N/A   Clear
11:53 PM 66.9 °F - 53.1 °F 61% 30.00 in 10.0 mi South 9.2 mph - N/A   Clear